Regional Weather Roundup
Issued by NWS

Home | Current Version | Previous Version | Graphics & Text | Print | Product List | Glossary On
Versions: 1 2 3 4 5 6 7 8 9 10 11 12 13 14 15 16 17 18 19 20 21 22 23 24 25 26 27 28 29 30 31 32 33 34 35 36 37 38 39 40 41 42 43 44 45 46 47 48
000
ASUS45 KBOU 262110
RWRCO

WEATHER ROUNDUP FOR COLORADO
NATIONAL WEATHER SERVICE PUEBLO CO
300 PM MDT THU APR 26 2018

NOTE: "FAIR" INDICATES FEW OR NO CLOUDS BELOW 12000 FEET WITH NO
SIGNIFICANT WEATHER AND/OR OBSTRUCTIONS TO VISIBILITY.

COZ001>005-013-030-031-262200-
...NORTHWEST COLORADO...

CITY           SKY/WX    TMP DP  RH WIND       PRES   REMARKS
CRAIG          FAIR      61  23  23 VRB7      30.26F
HAYDEN         FAIR      58  22  24 W10       30.27
MEEKER         FAIR      62  19  19 NE10      30.25F
RABBIT EARS PA NOT AVBL
STEAMBOAT SPGS FAIR      57  17  21 SW6G18    30.26S
WALDEN         FAIR      52  14  22 N6        30.31F
$$

COZ006>008-011-262200-
...WEST CENTRAL VALLEYS...

CITY           SKY/WX    TMP DP  RH WIND       PRES   REMARKS
GRAND JUNCTION FAIR      73  23  15 VRB3      30.14F
MONTROSE       FAIR      67  12  12 VRB3      30.19F
EAGLE          FAIR      63  14  15 NE12      30.23F
RIFLE          FAIR      66  19  16 VRB5      30.19F
DELTA          NOT AVBL
NUCLA          FAIR      72   9   8 N3G20     30.18F
$$

COZ017>023-064>068-262200-
...SOUTHWEST COLORADO...

CITY           SKY/WX    TMP DP  RH WIND       PRES   REMARKS
DURANGO        FAIR      74  -7   4 NE8       30.08F
CORTEZ         FAIR      76   2   5 N15G25    30.10F
PAGOSA SPRINGS FAIR      68  -9   4 NE5G18    30.16S
TELLURIDE      FAIR      58   6  13 N6        30.31R
WOLF CREEK PAS FAIR      41   1  19 N6G17     30.43S
$$

COZ009-010-012-014-032>034-037-058>063-262200-
...CENTRAL COLORADO...

CITY           SKY/WX    TMP DP  RH WIND       PRES   REMARKS
ASPEN          FAIR      59  18  20 VRB7      30.23F
BUENA VISTA    FAIR      61   7  11 NW14G29   30.21S
COPPER MTN     NOT AVBL
BERTHOUD PASS  FAIR      30  19  64 N10G22    30.41R WCI  21
COTTONWOOD PAS FAIR      61   9  12 CALM      30.30S
GUNNISON       FAIR      62  10  13 N15       30.21S
KREMMLING      FAIR      63  18  17 NE12      30.27S
LEADVILLE      FAIR      48  15  26 NW9G25    30.31R
MONARCH PASS   FAIR      41   9  26 NE6       30.49R
SALIDA         FAIR      65   7  10 N9G17     30.26F
SUNLIGHT       FAIR      41  16  36 SW3       30.43R
WILKERSON PASS FAIR      32  25  74 E5        30.38S WCI  27
$$

COZ069>075-262200-
...SAN LUIS VALLEY/SANGRE DE CRISTO MOUNTAINS...

CITY           SKY/WX    TMP DP  RH WIND       PRES   REMARKS
ALAMOSA        FAIR      65   5   9 N8G17     30.17F
DEL NORTE      FAIR      63   7  11 W10       30.19F
LA VETA PASS   PTSUNNY   41  27  56 NE18G31   30.44F
SAGUACHE       NOT AVBL
$$

COZ035-036-038>040-262200-
...NORTHERN COLORADO FRONT RANGE...

CITY           SKY/WX    TMP DP  RH WIND       PRES   REMARKS
DENVER INTL AP FAIR      58  24  27 N12G20    30.26F
DMNS CITY PARK NOT AVBL
AURORA         MOSUNNY   58  24  27 N15G21    30.27F
FRONT RANGE AP MOSUNNY   59  25  27 N16G25    30.27F
ERIE MUNI ARPT FAIR      59  23  24 NE12G17   30.31F
BOULDER MUN AP FAIR      59  27  29 E3        30.25F
CENTENNIAL     PTSUNNY   55  26  32 N10G18    30.27F
BROOMFIELD     MOSUNNY   57  25  28 N75       30.28F
LOVELAND       FAIR      61  24  24 NE10G16   30.25F
LONGMONT       FAIR      63  25  23 NE3G9     30.27F
$$

COZ041-046-047-076>085-087-088-262200-
...PIKES PEAK/PALMER DIVIDE AND SOUTHERN FOOTHILLS...

CITY           SKY/WX    TMP DP  RH WIND       PRES   REMARKS
COLO. SPRINGS  FAIR      54  28  36 N21G33    30.26F
A. F. ACADEMY  FAIR      50  27  40 N17G25    30.27F
SCHRIEVER AFB  NOT AVBL
CHEYENNE MTN   NOT AVBL
ELLICOTT         N/A    N/A N/A N/A N28G33    30.25F
FALCON         FAIR      51  24  33 N17G24    30.28F
FORT CARSON    FAIR      55  27  34 N32G39    30.22F
LIMON          FAIR      55  25  31 N23G35    30.24F
MONUMENT HILL  FAIR      45  27  49 N16       30.31F
CANON CITY     FAIR      63  32  31 SE10G20   30.20S
WALSENBURG     MOCLDY    57  27  30 N10G21    30.27S
TRINIDAD       CLOUDY    55  24  30 NE20G32   30.25R
$$

COZ042>045-048>051-090-091-262200-
...NORTHEAST COLORADO...

CITY           SKY/WX    TMP DP  RH WIND       PRES   REMARKS
GREELEY ARPT   FAIR      60  25  26 N10G18    30.26F
AKRON          FAIR      55  27  34 N20G29    30.23F
BURLINGTON     PTSUNNY   59  29  31 N25G37    30.20R
WRAY           FAIR      63  27  25 N20G28    30.20F
YUMA           NOT AVBL
STERLING       NOT AVBL
HOLYOKE        FAIR      64  28  25 N21G28    30.20F
FORT MORGAN    MOCLDY    63  20  19 N14G22    30.25F
$$

COZ086-089-092>099-262200-
...SOUTHEAST COLORADO...

CITY           SKY/WX    TMP DP  RH WIND       PRES   REMARKS
PUEBLO         FAIR      63  29  27 N32G43    30.21S
LA JUNTA       FAIR      66  25  21 N25G36    30.19F
LAMAR          FAIR      63  26  24 N23G37    30.15S
SPRINGFIELD      N/A     63  26  24 N30G45    30.14R
$$





USA.gov is the U.S. government's official web portal to all federal, state and local government web resources and services.